Location: Dealu Mare
(46.0500°N, 22.8167°E)
Time: 09:30:15
(UTC+00:00)

Cosmos 2084 - Pass Details

Date: 15 January 2026
Orbit: 535 x 565 km, 62.8° (Epoch: 10 February)

Event Time Altitude Azimuth Distance (km) Brightness Sun altitude
Exits shadow 04:43:22 23° 302° (WNW) 1,215 4.5 -14.2°
Maximum altitude 04:44:19 25° 324° (NW) 1,149 4.5 -14.0°
Drops below altitude 10° 04:47:47 10° 20° (NNE) 1,843 6.0 -13.4°
Sets 04:50:19 0° 34° (NE) 2,734 7.1 -13.0°
